Wind_Speed
19 19 19 21 21 22 24 25 24 25 26 27 27 27 30 32 34 39 33 29 32 29
20 20 18 20 23 27 28 28 29 25 26 31 30 29 31 32 32 33 32 37 34 30
12 16 19 20 21 21 24 27 29 32 34 32 29 29 29 34 35 31 30 25 26 27
20 22 23 24 25 26 28 30 32 31 32 33 33 33 33 32 33 33 26 20 22 20
19 22 25 28 29 29 28 28 30 31 32 33 35 34 35 35 31 25 23 28 19 19
25 26 26 27 28 29 31 33 34 35 35 35 35 34 34 35 30 24 19 18 24 22
21 22 24 27 29 30 31 32 32 31 34 34 31 31 33 30 24 23 24 25 26 21
22 23 24 26 28 27 27 29 30 31 32 31 27 22 18 18 17 16 23 26 25 28
30 32 34 36 38 40 41 40 40 40 38 35 29 23 20 19 26 21 25 30 27 28
32 33 34 37 38 37 35 35 33 31 29 30 29 28 35 30 28 29 31 31 33 33
30 32 33 31 31 30 29 30 29 29 28 29 28 28 30 32 39 38 38 36 36 35
27 26 27 28 27 26 27 26 28 31 30 29 32 33 31 31 33 35 36 35 34 34
23 24 26 25 24 23 24 25 28 28 26 24 27 26 27 26 27 29 31 29 31 31
21 23 22 22 21 20 21 25 27 27 29 32 30 30 28 26 26 27 27 28 28 27
Wind_Direction
317 319 320 314 314 321 323 323 322 319 319 317 316 318 318 307 300 284 290 294 295 303
320 315 310 314 313 313 316 315 318 321 321 321 326 331 325 321 309 311 287 277 298 288
315 315 312 311 314 313 309 309 310 311 313 317 320 322 321 321 319 313 305 294 298 293
309 308 308 309 312 310 310 309 308 308 308 309 311 313 312 314 313 314 314 309 288 287
306 306 306 306 304 304 304 304 308 307 306 304 305 304 306 308 306 307 294 295 285 281
304 306 308 310 311 309 308 305 304 303 300 300 302 298 303 299 295 300 303 291 277 268
308 305 302 301 302 301 300 301 299 303 307 303 300 299 295 293 282 292 298 290 288 300
306 306 303 301 300 301 300 302 303 307 307 311 309 313 303 280 275 281 298 298 287 283
307 304 303 301 301 303 303 300 300 300 300 305 303 295 314 287 287 296 277 286 288 290
311 308 308 308 310 309 309 310 311 309 306 303 306 304 293 296 296 297 293 292 293 294
308 308 310 313 315 313 313 315 313 314 307 303 303 301 299 295 278 277 287 282 285 288
315 315 318 320 316 318 313 315 312 311 306 302 305 304 302 301 299 290 286 276 271 277
334 330 326 324 324 315 321 313 312 316 313 312 314 318 314 311 305 298 295 289 279 270
339 337 333 329 335 330 322 321 324 324 322 318 318 316 312 310 303 303 299 297 292 282
Height
1510 1507 1505 1503 1501 1499 1498 1496 1494 1493 1492 1489 1486 1484 1481 1478 1475 1473 1472 1471 1470 1464
1505 1503 1502 1500 1498 1496 1494 1492 1490 1488 1487 1485 1482 1480 1477 1473 1468 1464 1461 1463 1461 1459
1502 1501 1499 1497 1495 1492 1491 1488 1485 1482 1480 1479 1477 1474 1472 1468 1464 1459 1455 1452 1453 1452
1498 1496 1495 1492 1490 1487 1485 1483 1480 1478 1475 1472 1469 1468 1465 1462 1458 1454 1449 1446 1445 1445
1492 1490 1489 1487 1485 1483 1480 1477 1475 1471 1468 1465 1462 1461 1457 1454 1451 1448 1445 1443 1439 1438
1485 1484 1482 1480 1479 1476 1473 1470 1467 1464 1460 1456 1454 1452 1450 1446 1444 1442 1440 1438 1434 1434
1481 1477 1475 1473 1470 1467 1464 1462 1458 1456 1452 1449 1446 1443 1441 1439 1438 1435 1433 1431 1429 1427
1475 1473 1470 1466 1463 1460 1457 1454 1451 1447 1445 1442 1439 1436 1434 1431 1430 1428 1428 1426 1422 1420
1468 1465 1463 1461 1457 1453 1449 1445 1443 1441 1438 1434 1433 1429 1430 1426 1423 1419 1420 1416 1413 1411
1462 1459 1456 1453 1448 1444 1441 1439 1435 1431 1430 1426 1425 1423 1421 1417 1414 1412 1411 1407 1405 1402
1456 1453 1448 1444 1442 1439 1435 1432 1428 1424 1422 1419 1418 1416 1412 1408 1404 1401 1401 1399 1396 1393
1452 1447 1443 1438 1434 1432 1431 1426 1423 1419 1415 1412 1410 1407 1403 1398 1394 1390 1388 1388 1387 1385
1448 1444 1439 1436 1430 1426 1424 1422 1418 1413 1410 1407 1404 1401 1396 1393 1387 1382 1379 1377 1376 1375
1444 1440 1436 1432 1427 1423 1421 1418 1413 1409 1405 1401 1398 1393 1389 1386 1381 1376 1372 1369 1367 1366